Regional Weather Roundup
Issued by NWS

Home | Current Version | Previous Version | Graphics & Text | Print | Product List | Glossary On
Versions: 1 2 3 4 5 6 7 8 9 10 11 12 13 14 15 16 17 18 19 20 21 22 23 24 25 26 27 28
000
ASUS45 KCYS 291210
RWRWY

WYOMING REGIONAL WEATHER ROUNDUP
NATIONAL WEATHER SERVICE CHEYENNE WY
600 AM MDT SUN MAY 29 2016

NOTE:  "FAIR" INDICATES FEW OR NO CLOUDS BELOW 12,000 FEET
WITH NO SIGNIFICANT WEATHER AND/OR OBSTRUCTIONS TO VISIBILITY.

WYZ001-291300-
YELLOWSTONE NATIONAL PARK

CITY           SKY/WX    TMP DP  RH WIND       PRES   REMARKS
LK YELLOWSTONE   N/A     27  23  85 CALM      30.26R
6HR MIN TEMP:  26; 6HR MAX TEMP:  31;

W YELLOWSTONE  NOT AVBL

$$
WYZ002>013-054>058-071-098>099-291300-
NORTHERN WYOMING

CITY           SKY/WX    TMP DP  RH WIND       PRES   REMARKS
JACKSON        FAIR      30  28  93 N6        30.23R WCI  24
CODY           FAIR      46  34  61 NE7       30.10R
GREYBULL       MOCLDY    51  42  71 NW5       30.08R
6HR MIN TEMP:  50; 6HR MAX TEMP:  57;

WORLAND        FAIR      46  42  86 S7        30.09R
6HR MIN TEMP:  44; 6HR MAX TEMP:  57;

SHERIDAN       MOCLDY    43  40  89 S3        30.07R
6HR MIN TEMP:  41; 6HR MAX TEMP:  50;

BUFFALO        FAIR      51  40  65 SE3       30.11R
6HR MIN TEMP:  45; 6HR MAX TEMP:  54;

GILLETTE       FAIR      48  45  89 S6        30.09R
6HR MIN TEMP:  44; 6HR MAX TEMP:  54; 6HR PCP:  0.15;

HULETT         FAIR      50  45  81 CALM      30.10R
NEWCASTLE      FAIR      46  41  81 N9        30.11F

$$
WYZ014>020-022>026-101>103-291300-
CENTRAL WYOMING

CITY           SKY/WX    TMP DP  RH WIND       PRES   REMARKS
BIG PINEY      FAIR      30  26  85 N3        30.23S
6HR MIN TEMP:  28; 6HR MAX TEMP:  44;

PINEDALE       FAIR      28  28 100 MISG      30.24R
DUBOIS         FAIR      32  23  69 NW18      30.19R WCI  20
LANDER         FAIR      45  27  49 NW3       30.13R
6HR MIN TEMP:  41; 6HR MAX TEMP:  55;

RIVERTON       FAIR      44  27  51 NW12      30.14R
6HR MIN TEMP:  43; 6HR MAX TEMP:  52;

CASPER         FAIR      38  36  92 SW7       30.13R WCI  33
6HR MIN TEMP:  38; 6HR MAX TEMP:  46;

DOUGLAS          N/A    N/A N/A N/A MISG      30.13R

$$
WYZ021-027>030-104>119-291300-
SOUTHERN WYOMING

CITY           SKY/WX    TMP DP  RH WIND       PRES   REMARKS
EVANSTON       FAIR      44  30  57 E3        30.21R
6HR MIN TEMP:  40; 6HR MAX TEMP:  51;

KEMMERER         N/A     32  30  93 N10       30.23S WCI  24
FORT BRIDGER   SUNNY     45  32  61 CALM      30.24S
ROCK SPRINGS   FAIR      43  35  73 CALM      30.21R
6HR MIN TEMP:  42; 6HR MAX TEMP:  48;

DIXON          FAIR      39  34  83 CALM      30.24R
RAWLINS        FAIR      36  31  82 SE3       30.21R
6HR MIN TEMP:  36; 6HR MAX TEMP:  50;

SARATOGA       FAIR      36  34  93 SE7       30.23R WCI  30
LARAMIE        FAIR      38  33  82 SE7       30.22R WCI  33
6HR MIN TEMP:  37; 6HR MAX TEMP:  48;

CHEYENNE       FAIR      45  35  68 W6        30.18R
6HR MIN TEMP:  40; 6HR MAX TEMP:  52;

TORRINGTON     FAIR      43  40  89 VRB3      30.10R
6HR MIN TEMP:  42; 6HR MAX TEMP:  51;

PINE BLUFFS    FAIR      37  37 100 CALM      30.15S

$$




USA.gov is the U.S. government's official web portal to all federal, state and local government web resources and services.